Showing default

IRIDIUM 145, 43253

Orbit data source: Space-Track

IRIDIUM 145, 43253 is a payload satellite owned by Iridium (US) in LEO that was launched on Fri, 30 Mar 2018 UTC via an FALCON 9 launch vehicle from the Air Force Western Test Range (AFWTR). Payload-class satellites include a variety of spacecraft equipped with specific instruments for various scientific and technological missions. These include communications satellites like Starlink; space stations such as the ISS; scientific satellites like the Hubble; Earth observation satellites from companies like Planet Labs, Umbra, and HawkEye 360; GPS; miniature CubeSats for education and research; and military/defense satellites.

Loading next visibility...
Identifier
43253, 2018-030E
Orbit
LEO
Country
Flag of USUS
Related business
Manufacturer
OATK SSG Gilbert
Mission
Operational Commercial Communications
Bus & Motor
ELITEBUS, Unknown motor
Mass
860 kg wet, 700 kg dry
Launch date (UTC)
2018-03-30 (7 years ago)
Launch vehicle
FALCON 9
Launch site
Air Force Western Test Range (AFWTR)
Object type
Payload
Rocket body
Debris
Shape & HBR
Trap Box + 2 Pan, 4.7 m
Radar Cross Section
14.423 m², Large (>1 m²)

Expand to show TLE details & history
Last TLE update: 11 hours ago

TLE from 11 hours ago
0 IRIDIUM 145
1 43253U 18030E   25258.51388329  .00000087  00000-0  23897-4 0  9998
2 43253  86.3956  45.2121 0002491  85.7635 274.3846 14.34217762390756
Epoch: 2025-09-15T12:19Z
TLE epoch observation values (Epoch: 2025-09-15T12:19:59.516Z)
Latitude
0.00005°
Longitude
-134.50333°
Altitude
780.582 km
Speed
7.464 km/s
True Right ascension
03h 00m 50s
True Declination
0° 00' 00"
Sunlit
Object was in full shadow at epoch
Visualization orbit readout
Latitude
Unknown
Longitude
Unknown
Altitude
Unknown
Speed
Unknown
Apparent Right ascension
Unknown
Apparent Declination
Unknown
Sunlit
N/A
Visualization observer readout
Local Sidereal Time
15:47:20
Azimuth
Unknown
Elevation
Unknown
Doppler factor
Unknown
Orbital elements
Apogee altitude
776.413 km
Perigee altitude
772.85 km
Semi-major axis
7,152.769 km
Eccentricity
0.00025
Inclination
86.3956°
RAAN
45.2121°
Arg. of periapsis
85.7635°
True anomaly
274.35614°
Mean anomaly
274.3846°
Eccentric anomaly
274.37037°
Mean motion
3.58783 °/min
Orbital period
100.34 mins
BSTAR
0.000023897
Loading maneuver chart data...
Computing Atmospheric mass density...
Loading historical data...
Loading historical data...
Loading historical data...
Loading historical data...
Loading historical data...
Loading historical data...
Loading historical data...

Documentation

Showing up to 5 results
|